Weather in Nikolaevka

Russia / Republic of Crimea     44°58′07″N   33°36′26″E
temp.,
°C
wind,
m/s
gust,
m/s
humid.,
%
clouds,
%
prec.,
mm/h
press.,
hPa
HPBL,
m
28 february, sun
sun2800:00+6n8977100 0.0 1019677
03:00+6n7972100 0.0 10201043
06:00+6nnw7780100 0.1 1020678
09:00+5n6787100 0.4 1021636
12:00+6nnw7874100 0.5 1022917
15:00+6nnw777194 0.6 10221039
18:00+5nnw8978100 0.2 1023859
21:00+5nnw787698 0.3 1024754
1 march, mon
mon100:00+5n456897 0.1 1025814
03:00+4wnw237599 0.2 1025571
06:00+4nnw5583100 0.3 1025635
09:00+3ne3374100 0.3 1026531
12:00+4n226471 0.0 1027831
15:00+5n345855 0.0 1027978
18:00+6nne455981 0.0 10271236
21:00+5nne556590 0.0 1029907
2 march, tue
tue200:00+4nne557687 0.0 1030393
03:00+4ne447485 0.1 1030412
06:00+3ne337128 0.0 1030436
09:00+3nne336914 0.0 1031419
12:00+4wnw33678 0.0 1030727
15:00+4w55647 0.0 1029911
18:00+5w676968 0.0 1027979
21:00+6w677468 0.0 1027701
3 march, wed
wed300:00+7w787650 0.0 1026807
03:00+8wnw677960 0.0 1025665
06:00+6n448443 0.0 1025281
09:00+5n238222 0.0 1026255
12:00+6wnw35770 0.0 1026471
15:00+8wnw56730 0.0 1026540
18:00+8nw56740 0.0 1026320
21:00+8nnw457644 0.0 1028234
4 march, thu
thu400:00+7n236956 0.0 1028175
03:00+6ne227128 0.0 1028109
06:00+6ese22690 0.0 1027124
09:00+7sse33666 0.0 1027217
12:00+7sw23620 0.0 1026349
15:00+8wsw35650 0.0 1025486
18:00+8sw56690 0.0 1023487
21:00+8ssw79770 0.0 1022543